Location: Unspecified
(0.0000°N, 0.0000°E)
Time: 05:05:10
(UTC+00:00)

Transit 2A - Visible Passes

Search period start: 24 November 2014 00:00
Search period end: 04 December 2014 00:00
Orbit: 596 x 966 km, 66.7° (Epoch: 23 November)

Date Brightness Start Highest point End Pass type
(mag) Time Alt. Az. Time Alt. Az. Time Alt. Az.
24 Nov 8.4 05:12:49 10° NNE 05:18:11 29° ENE 05:23:32 10° SE visible
25 Nov 8.9 04:40:22 10° NNE 04:44:37 19° ENE 04:48:50 10° ESE visible
26 Nov 9.2 04:09:15 10° NE 04:11:01 11° ENE 04:12:47 10° E visible
26 Nov 8.3 18:26:11 10° WSW 18:28:37 15° WNW 18:31:05 10° NW visible
27 Nov 6.6 05:14:13 10° NNW 05:20:35 83° ENE 05:26:52 10° SSE visible
28 Nov 7.2 04:40:52 10° N 04:47:02 53° ENE 04:53:07 10° SE visible
29 Nov 7.9 04:07:48 10° N 04:13:28 34° ENE 04:19:04 10° SE visible
30 Nov 8.5 03:35:16 10° NNE 03:39:53 22° ENE 03:44:34 10° ESE visible
30 Nov 7.2 05:17:14 10° NW 05:22:56 35° WSW 05:28:33 10° S visible
01 Dec 8.9 03:03:41 11° NE 03:06:16 14° ENE 03:09:15 10° E visible
01 Dec 6.6 04:44:17 16° NW 04:49:23 55° WSW 04:55:28 10° S visible
02 Dec 6.4 04:12:40 32° NNW 04:15:50 85° WSW 04:22:05 10° SSE visible
03 Dec 6.7 03:40:59 52° NNE 03:42:16 63° ENE 03:48:26 10° SSE visible
03 Dec 8.2 05:23:20 10° W 05:25:18 12° WSW 05:27:16 10° SW visible
